Location: Hermaringen
(48.5952°N, 10.2585°E)
Time: 06:12:32
(UTC+00:00)

YAOGAN 1 - Pass Details

Date: 18 November 2025
Orbit: 605 x 607 km, 97.8° (Epoch: 06 December)

Event Time Altitude Azimuth Distance (km) Brightness Sun altitude
Rises 18:17:40 0° 186° (S) 2,853 6.0 -26.5°
Reaches altitude 10° 18:19:58 10° 195° (SSW) 1,954 5.3 -26.8°
Maximum altitude 18:23:54 37° 263° (W) 959 4.0 -27.5°
Drops below altitude 10° 18:27:52 10° 331° (NNW) 1,968 5.5 -28.2°
Sets 18:30:12 0° 340° (NNW) 2,876 6.3 -28.5°
